When you browse on this site, cookies collect data to enhance your experience and personalize the content and advertising you see.
Visit our Privacy Policy to learn more. By continuing to use the site, you agree to this use of cookies and data.
  • In Österreich
  • Länderverzeichnis
  • Für 7 Tage
  • Wassertemperatur
  • Satellitenkarten
  • Wetterkarte
  • News
  • Widgets
  • user-avatar
    Anmelden

    Stündliche Wetter Ansfelden

    Heute, 11 Dezember, Dienstag

    Zeit Temperatur Niederschläge Wind Luftdruck Luftfeuchtigkeit
    00:00 0°C° 0.2 mm 4 m/S 736 mmHg 86%
    01:00 -1°C° 0.2 mm 4 m/S 736 mmHg 86%
    02:00 -1°C° 0.2 mm 5 m/S 736 mmHg 86%
    03:00 0°C° 0.2 mm 5 m/S 737 mmHg 85%
    04:00 0°C° 0.2 mm 5 m/S 737 mmHg 85%
    05:00 -1°C° 0.3 mm 6 m/S 737 mmHg 85%
    06:00 -1°C° 0.3 mm 6 m/S 737 mmHg 85%
    07:00 -1°C° 0.3 mm 6 m/S 737 mmHg 86%
    08:00 -1°C° 0.3 mm 6 m/S 737 mmHg 84%
    09:00 -1°C° 0.3 mm 6 m/S 737 mmHg 83%
    10:00 -1°C° 0.3 mm 7 m/S 737 mmHg 82%
    11:00 0°C° 0.2 mm 7 m/S 737 mmHg 81%
    12:00 0°C° 0.2 mm 7 m/S 737 mmHg 80%
    13:00 0°C° 0.2 mm 7 m/S 737 mmHg 78%
    14:00 0°C° 0.2 mm 7 m/S 737 mmHg 79%
    15:00 +1°C° 0.2 mm 6 m/S 737 mmHg 80%
    16:00 -1°C° 0.2 mm 6 m/S 737 mmHg 81%
    17:00 -1°C° 0.2 mm 6 m/S 738 mmHg 82%
    18:00 -1°C° 0.2 mm 6 m/S 738 mmHg 83%
    19:00 -1°C° 0.2 mm 6 m/S 738 mmHg 84%
    20:00 -1°C° 0.3 mm 6 m/S 738 mmHg 85%
    21:00 -1°C° 0.3 mm 6 m/S 738 mmHg 86%
    22:00 -1°C° 0.3 mm 6 m/S 738 mmHg 87%
    23:00 -1°C° 0.4 mm 5 m/S 738 mmHg 87%

    Morgen, 12 Dezember, Mittwoch

    Zeit Temperatur Niederschläge Wind Luftdruck Luftfeuchtigkeit
    00:00 -1°C° 0.4 mm 5 m/S 739 mmHg 88%
    01:00 -1°C° 0.4 mm 5 m/S 739 mmHg 89%
    02:00 -1°C° 0.5 mm 5 m/S 739 mmHg 89%
    03:00 -1°C° 0.5 mm 5 m/S 739 mmHg 90%
    04:00 -1°C° 0.5 mm 4 m/S 739 mmHg 90%
    05:00 -1°C° 0.5 mm 4 m/S 739 mmHg 91%
    06:00 -1°C° 0.5 mm 4 m/S 739 mmHg 91%
    07:00 0°C° 0.5 mm 3 m/S 739 mmHg 92%
    08:00 0°C° 0.4 mm 3 m/S 740 mmHg 92%
    09:00 0°C° 0.4 mm 3 m/S 740 mmHg 91%
    10:00 0°C° 0.4 mm 3 m/S 740 mmHg 91%
    11:00 +1°C° 0.2 mm 2 m/S 740 mmHg 90%
    12:00 +1°C° 0.2 mm 2 m/S 739 mmHg 89%
    13:00 +2°C° 0.2 mm 2 m/S 739 mmHg 88%
    14:00 +1°C° 0.1 mm 2 m/S 739 mmHg 90%
    15:00 +2°C° 0.1 mm 1 m/S 739 mmHg 91%
    16:00 +2°C° 0.1 mm 1 m/S 739 mmHg 92%
    17:00 +1°C° 0.1 mm 1 m/S 739 mmHg 93%
    18:00 +1°C° 0.1 mm 1 m/S 739 mmHg 93%
    19:00 0°C° 0.1 mm 1 m/S 740 mmHg 94%
    20:00 0°C° 0.2 mm 1 m/S 740 mmHg 93%
    21:00 0°C° 0.2 mm 1 m/S 740 mmHg 93%
    22:00 -1°C° 0.2 mm 1 m/S 740 mmHg 93%
    23:00 -1°C° 0.1 mm 1 m/S 740 mmHg 92%

    übermorgen, 13 Dezember, Donnerstag

    Zeit Temperatur Niederschläge Wind Luftdruck Luftfeuchtigkeit
    00:00 -1°C° 0.1 mm 1 m/S 739 mmHg 92%
    01:00 -2°C° 0.1 mm 1 m/S 739 mmHg 92%
    02:00 -2°C° 0 mm 1 m/S 739 mmHg 91%
    03:00 -2°C° 0 mm 1 m/S 739 mmHg 91%
    04:00 -3°C° 0 mm 1 m/S 739 mmHg 91%
    05:00 -3°C° 0 mm 1 m/S 739 mmHg 90%
    06:00 -4°C° 0 mm 1 m/S 738 mmHg 90%
    07:00 -4°C° 0 mm 1 m/S 738 mmHg 90%
    08:00 -3°C° 0 mm 1 m/S 738 mmHg 88%
    09:00 -4°C° 0 mm 2 m/S 738 mmHg 86%
    10:00 -3°C° 0 mm 2 m/S 738 mmHg 84%
    11:00 -2°C° 0 mm 2 m/S 738 mmHg 82%
    12:00 -1°C° 0 mm 3 m/S 737 mmHg 81%
    13:00 0°C° 0 mm 3 m/S 737 mmHg 79%
    14:00 -1°C° 0 mm 3 m/S 737 mmHg 82%
    15:00 -2°C° 0 mm 3 m/S 737 mmHg 85%
    16:00 -2°C° 0 mm 2 m/S 737 mmHg 88%
    17:00 -3°C° 0 mm 2 m/S 737 mmHg 88%
    18:00 -4°C° 0 mm 2 m/S 738 mmHg 89%
    19:00 -4°C° 0 mm 2 m/S 738 mmHg 90%
    20:00 -4°C° 0 mm 2 m/S 738 mmHg 90%
    21:00 -5°C° 0 mm 2 m/S 739 mmHg 90%
    22:00 -5°C° 0 mm 2 m/S 739 mmHg 90%
    23:00 -5°C° 0 mm 2 m/S 739 mmHg 90%

    14 Dezember, Freitag

    Zeit Temperatur Niederschläge Wind Luftdruck Luftfeuchtigkeit
    00:00 -5°C° 0 mm 2 m/S 739 mmHg 90%
    01:00 -5°C° 0 mm 2 m/S 739 mmHg 90%
    02:00 -5°C° 0 mm 2 m/S 739 mmHg 89%
    03:00 -5°C° 0 mm 2 m/S 739 mmHg 89%
    04:00 -5°C° 0 mm 2 m/S 739 mmHg 89%
    05:00 -5°C° 0 mm 2 m/S 739 mmHg 89%
    06:00 -5°C° 0 mm 2 m/S 740 mmHg 88%
    07:00 -5°C° 0 mm 2 m/S 740 mmHg 88%
    08:00 -4°C° 0 mm 2 m/S 740 mmHg 86%
    09:00 -4°C° 0 mm 2 m/S 740 mmHg 84%
    10:00 -3°C° 0 mm 2 m/S 740 mmHg 81%
    11:00 -2°C° 0 mm 2 m/S 740 mmHg 80%
    12:00 -1°C° 0 mm 2 m/S 740 mmHg 79%
    13:00 +1°C° 0 mm 2 m/S 740 mmHg 77%
    14:00 -1°C° 0 mm 2 m/S 740 mmHg 81%
    15:00 -2°C° 0 mm 2 m/S 740 mmHg 85%
    16:00 -1°C° 0 mm 1 m/S 740 mmHg 89%
    17:00 -1°C° 0 mm 1 m/S 741 mmHg 90%
    18:00 -2°C° 0 mm 1 m/S 741 mmHg 90%
    19:00 -3°C° 0 mm 1 m/S 742 mmHg 91%
    20:00 -3°C° 0 mm 1 m/S 742 mmHg 90%
    21:00 -3°C° 0 mm 1 m/S 743 mmHg 89%
    22:00 -3°C° 0 mm 1 m/S 743 mmHg 88%
    23:00 -3°C° 0 mm 1 m/S 743 mmHg 88%

    15 Dezember, Samstag

    Zeit Temperatur Niederschläge Wind Luftdruck Luftfeuchtigkeit
    00:00 -3°C° 0 mm 1 m/S 743 mmHg 87%
    01:00 -3°C° 0 mm 1 m/S 743 mmHg 86%
    02:00 -3°C° 0 mm 1 m/S 743 mmHg 86%
    03:00 -4°C° 0 mm 1 m/S 743 mmHg 85%
    04:00 -4°C° 0 mm 1 m/S 743 mmHg 85%
    05:00 -3°C° 0 mm 1 m/S 744 mmHg 84%
    06:00 -4°C° 0 mm 0 m/S 744 mmHg 84%
    07:00 -4°C° 0 mm 0 m/S 744 mmHg 83%
    08:00 -3°C° 0 mm 0 m/S 744 mmHg 81%
    09:00 -2°C° 0 mm 0 m/S 745 mmHg 79%
    10:00 -1°C° 0 mm 0 m/S 745 mmHg 77%
    11:00 0°C° 0 mm 0 m/S 745 mmHg 75%
    12:00 +1°C° 0 mm 0 m/S 744 mmHg 73%
    13:00 +3°C° 0 mm 1 m/S 744 mmHg 71%
    14:00 +1°C° 0 mm 1 m/S 744 mmHg 75%
    15:00 -1°C° 0 mm 0 m/S 744 mmHg 80%
    16:00 -2°C° 0 mm 0 m/S 744 mmHg 85%
    17:00 -2°C° 0 mm 0 m/S 744 mmHg 85%
    18:00 -2°C° 0 mm 1 m/S 745 mmHg 85%
    19:00 -2°C° 0 mm 1 m/S 745 mmHg 86%
    20:00 -2°C° 0 mm 1 m/S 745 mmHg 85%
    21:00 -2°C° 0 mm 1 m/S 745 mmHg 85%
    22:00 -3°C° 0 mm 1 m/S 745 mmHg 85%
    23:00 -3°C° 0 mm 1 m/S 745 mmHg 84%

    16 Dezember, Sonntag

    Zeit Temperatur Niederschläge Wind Luftdruck Luftfeuchtigkeit
    00:00 -3°C° 0 mm 1 m/S 745 mmHg 84%
    01:00 -3°C° 0 mm 1 m/S 745 mmHg 84%
    02:00 -3°C° 0 mm 1 m/S 744 mmHg 83%
    03:00 -3°C° 0 mm 1 m/S 744 mmHg 83%
    04:00 -3°C° 0 mm 1 m/S 744 mmHg 82%
    05:00 -3°C° 0 mm 1 m/S 744 mmHg 82%
    06:00 -3°C° 0 mm 1 m/S 744 mmHg 81%
    07:00 -3°C° 0 mm 1 m/S 744 mmHg 80%
    08:00 -2°C° 0 mm 1 m/S 743 mmHg 78%
    09:00 -1°C° 0 mm 1 m/S 743 mmHg 76%
    10:00 +1°C° 0 mm 1 m/S 743 mmHg 73%
    11:00 +2°C° 0 mm 1 m/S 743 mmHg 73%
    12:00 +3°C° 0 mm 1 m/S 743 mmHg 73%
    13:00 +4°C° 0 mm 1 m/S 742 mmHg 72%
    14:00 +3°C° 0 mm 1 m/S 742 mmHg 74%
    15:00 +3°C° 0 mm 1 m/S 742 mmHg 76%
    16:00 +3°C° 0 mm 1 m/S 742 mmHg 77%
    17:00 +3°C° 0.4 mm 1 m/S 742 mmHg 80%
    18:00 +3°C° 0.4 mm 1 m/S 742 mmHg 83%
    19:00 +2°C° 0.4 mm 1 m/S 743 mmHg 86%
    20:00 +3°C° 0.4 mm 1 m/S 743 mmHg 88%
    21:00 +2°C° 0.4 mm 0 m/S 743 mmHg 90%
    22:00 +2°C° 0.4 mm 0 m/S 743 mmHg 91%
    23:00 +3°C° 0.3 mm 1 m/S 743 mmHg 92%
    Mehr zeigen